www.pogodaiklimat.ru
ПОГОДА в Грове
Время
(UTC), дата
02:35 27.09
02:55 27.09
03:15 27.09
03:35 27.09
03:55 27.09
04:15 27.09
04:35 27.09
04:55 27.09
05:15 28.09
05:35 28.09
05:55 28.09
06:15 28.09
06:35 28.09
06:55 28.09
07:15 28.09
07:35 28.09
07:55 28.09
08:15 28.09
08:35 28.09
08:55 28.09
09:15 28.09
09:35 28.09
09:55 28.09
10:15 28.09
11:35 28.09
11:55 28.09
12:15 28.09
13:35 28.09
13:55 28.09
14:15 28.09
15:35 28.09
15:55 28.09
16:15 28.09
17:35 28.09
17:55 28.09
18:15 28.09
18:35 28.09
18:55 28.09
19:15 28.09
19:35 28.09
19:55 28.09
20:15 28.09
20:35 28.09
20:55 28.09
21:15 28.09
21:35 28.09
21:55 28.09
22:15 28.09
Ветер
(напр.,м/с)
Видим. Явления Облачность Т
(С)
Тd
(С)
f
(%)
Тe
(С)
Тes
(С)
Комфортность P
(гПа)
Po
(гПа)
Тmin
(С)
Tmax
(С)
R
(мм)
R24
(мм)
S
(см)
СВ 2
{4}
16 км 8/8 1800 м +12.0 +11.0 94 +10 +10 984.2
С 1 16 км 8/0 2100 м
[средняя]
+13.0 +11.0 88 +12 +12 983.9
С 2 16 км 8/0 2100 м
[средняя]
+13.0 +11.0 88 +11 +11 984.2
СВ 1 16 км слабый дождь 10/0 2100 м
[средняя]
+13.0 +11.0 88 +12 +12 984.2
С 1 16 км 10/0 2100 м
[средняя]
+13.0 +11.0 88 +12 +12 984.6
СЗ 2 16 км 10/0 2400 м
[средняя]
+13.0 +11.0 88 +11 +11 985.6
СЗ 2 16 км 8/5 270 м
[средняя]
+13.0 +11.0 88 +11 +11 985.6
СЗ 2 16 км 8/8 300 м +12.0 +11.0 94 +10 +10 986.2
С 2 16 км 8/8 330 м
[средняя]
+12.0 +11.0 94 +10 +10 985.9
С 2 16 км 8/5 390 м
[средняя]
+12.0 +11.0 94 +10 +10 985.9
С 2 16 км 5/5 390 м
[средняя]
+12.0 +11.0 94 +9 +9 985.9
СЗ 2 16 км 5/5 330 м
[средняя]
+12.0 +11.0 94 +10 +10 986.2
С 2 16 км 8/5 330 м
[средняя]
+12.0 +10.0 88 +9 +10 985.6
СЗ 1 16 км 8/5 330 м
[средняя]
+12.0 +10.0 88 +10 +11 985.6
СЗ 1 16 км 8/0 3000 м
[средняя]
+12.0 +10.0 88 +11 +14 985.6
штиль 0 16 км 8/0 3300 м
[средняя]
+12.0 +11.0 94 +11 +15 985.2
штиль 0 16 км 10/0 3300 м
[средняя]
+12.0 +11.0 94 +11 +14 985.2
СЗ 1 16 км 10/0 3300 м
[средняя]
+12.0 +11.0 94 +11 +15 985.6
СЗ 1 16 км 10/5 300 м
[средняя]
+12.0 +11.0 94 +11 +13 985.9
штиль 0 16 км 8/5 300 м
[средняя]
+12.0 +10.0 88 +11 +16 986.2
штиль 0 16 км 5/0 3600 м
[средняя]
+12.0 +10.0 88 +11 +27 опасность
простуды
986.2
штиль 0 16 км ясно +12.0 +10.0 88 +11 +35 опасность
простуды
986.2
штиль 0 16 км ясно +11.0 +10.0 94 +10 +34 опасность
простуды
986.2
штиль 0 16 км ясно +11.0 +10.0 94 +10 +39 опасность
простуды
986.5
СЗ 1 16 км ясно +11.0 +10.0 94 +10 +31 опасность
простуды
986.9
СЗ 1 16 км ясно +11.0 +10.0 94 +10 +31 опасность
простуды
987.2
З 1 16 км ясно +11.0 +10.0 94 +10 +32 опасность
простуды
987.5
З 1 16 км ясно +12.0 +10.0 88 +10 +27 опасность
простуды
988.2
СЗ 2 16 км ясно +13.0 +10.0 82 +11 +25 опасность
простуды
988.2
СЗ 3 16 км ясно +13.0 +9.0 77 +11 +17 988.5
СЗ 3
{4}
16 км ясно +16.0 +8.0 59 +15 +19 989.2
СЗ 2
{4}
16 км ясно +17.0 +8.0 55 +16 +22 989.2
СЗ 2
{4}
16 км ясно +17.0 +8.0 55 +16 +19 989.5
СЗ 3
{4}
16 км ясно +19.0 +8.0 49 +19 +19 989.2
СЗ 3
{4}
16 км 5/5 1320 м +19.0 +8.0 49 +19 +19 989.2
СЗ 3
{4}
16 км 5/5 1320 м +19.0 +7.0 46 +19 +19 989.2
С 3
{4}
16 км ясно +20.0 +7.0 43 +21 +21 комфорт 989.2
СЗ 3
{5}
16 км 5/5 1500 м +20.0 +6.0 40 +20 +20 988.8
С 4
{5}
16 км 5/5 1500 м +20.0 +5.0 37 +20 +20 988.5
СЗ 4
{5}
16 км ясно +21.0 +5.0 35 +21 +21 комфорт 988.2
СЗ 3 16 км 5/5 1800 м
[средняя]
+19.0 +5.0 40 +19 +19 988.2
СЗ 3
{4}
16 км 5/0 2400 м
[средняя]
+21.0 +5.0 35 +22 +22 комфорт 988.2
СЗ 3
{4}
16 км 8/0 2400 м
[средняя]
+20.0 +3.0 32 +20 +20 987.9
СЗ 3
{4}
16 км 5/0 2400 м
[средняя]
+20.0 +3.0 32 +20 +20 987.9
СЗ 3
{4}
16 км 8/0 2100 м
[средняя]
+20.0 +3.0 32 +20 +20 987.9
СЗ 3
{5}
16 км 8/0 2400 м
[средняя]
+20.0 +2.0 30 +20 +20 987.9
СЗ 3 16 км 8/0 2400 м
[средняя]
+21.0 +3.0 30 +21 +21 комфорт 987.9
СЗ 2
{4}
16 км 8/0 2250 м
[средняя]
+19.0 +3.0 34 +19 +19 987.9
Местоположение метеостанции Grove Municipal Airport: широта 36.6053 долгота -94.7386 высота над уровнем моря 254 м.
В архиве по умолчанию представлена погода в Грове за последние 1-2 суток. Обновление информации о фактической погоде в базе происходит ежечасно! Архивные данные за месяц целиком и за предыдущие месяцы Вы можете получить, выбрав интересующий диапазон дат из раскрывающегося списка и нажав кнопку "Ввод!".
Внимание! Архив погоды МЕТАР в базе сайта по станциям, не включенным в климатический монитор, хранится не более 60 дней. Нет смысла пытаться выбрать более раннюю дату.
*Определитесь, кто Вы:
Внимание! Время в таблицах - всемирное. Для получения местного времени необходимо прибавить поправку, которая равна ч.
Смотрите также архив погоды в соседних городах и на ближайших метеорологических станциях:
Партнеры нашего сайта:      
Пояснения к столбцам:
  • Ветер - указаны скорость ветра в м/с - средняя за 10 мин, порывы в срок и между сроками (в фигурных скобках) и направление, откуда дует ветер: С - северный,
  • СВ - северо-восточный, В - восточный, ЮВ - юго-восточный, Ю - южный, ЮЗ - юго-западный, З - западный, СЗ - северо-западный.
  • Видимость - горизонтальная дальность видимости в метрах или километрах. При видимости от 1 до 10 км при отсутствии осадков обычно наблюдается дымка, при ухудшении видимости до 1 км и менее - туман. В сухую погоду видимость может ухудшаться дымом, пылью или мглою.
  • Явления - указаны атмосферные явления, наблюдавшиеся в срок или в последний час перед сроком; фигурными скобками обозначены явления, наблюдавшиеся между сроками (за 1-3 часа до срока); квадратными скобками обозначены град или гололедные отложения с указанием их диаметра в мм.
  • Облачность - указаны через наклонную черту общая и нижняя облачность в баллах и высота нижней границы облаков в метрах; квадратными скобками обозначены формы облаков: Ci - перистые, Cs - перисто-слоистые, Cc - перисто-кучевые, Ac - высококучевые, As - высокослоистые, Sc - слоисто-кучевые, Ns - слоисто-дождевые, Cu - кучевые, Cb - кучево-дождевые. Подробнее классификацию облаков см. в Атласе облаков (PDF).
  • T - Температура воздуха - температура, измеренная на высоте 2 м над землей.
  • Td - Температура точки росы - температура, при понижении до которой содержащийся в воздухе водяной пар достигнет насыщения.
  • f - Относительная влажность воздуха - влажноcть воздуха, измеренная на высоте 2 м над землей.
  • Te - Эффективная температура - температура, которую ощущает одетый по сезону человек в тени. Характеристика душности погоды. При расчете учитывается влияние влажности воздуха и скорости ветра на теплоощущения человека.
  • Tes - Эффективная температура на солнце - температура, которую ощущает человек, с поправкой на солнечный нагрев. Характеристика знойности погоды. Зависит от высоты солнца над горизонтом, облачности и скорости ветра. Ночью, в пасмурную погоду, а также при ветре 12 м/с и более поправка равна нулю.
  • P - Атмосферное давление - приведенное к уровню моря атмосферное давление.
  • Po - Атмосферное давление - измеренное на уровне метеостанции атмосферное давление.
  • Tmin - Минимальная температура - минимум температуры воздуха на высоте 2 м над землей.
  • Tmax - Максимальная температура - максимум температуры воздуха на высоте 2 м над землей.
  • R - Количество осадков - Количество выпавших осадков за период времени, мм. При наведении курсора мыши на число - период времени, за который выпало указанное количество осадков.
  • R24 - Количество осадков - Количество выпавших осадков за 24 часа, мм.
  • S - Снежный покров - Высота снежного покрова, см. При наведении курсора мыши на число - состояние снежного покрова и степень покрытия местности в баллах.